Find Starlink 34660

NORAD ID: 64800 Int'l Des: 2025-150 Owner: SPXS Country: US Constellation: starlink operational
LEOCIRCULAR

現在のビュー

3D地球を読み込み中...

About Starlink 34660

Starlink 34660 (NORAD 64800) is a starlink constellation satellite (v2 mini) launched Jul 16, 2025 by SPXS of US. It operates in LEO, CIRCULAR orbit with a mass of 575.00 kg.

Starlink 34660について

説明を読み込み中...

次回通過

Passes for default location (London). Set your location on the main map for personalized predictions.

高度履歴

Loading altitude history...

軌道要素

1 64800U 25150L 26195.16799832 .00002021 00000-0 17707-3 0 9999
2 64800 69.9996 175.4908 0003948 260.8510 99.2202 14.98335553 55468
Epoch: Jul 14, 2026 • Age: 5 hours

現在のステータス

高度 580.7 km
遠地点 / 近地点 N/A
速度 7.57 km/s
衛星直下点 47.60°N, 101.84°W
打ち上げ日 Jul 16, 2025
運用期間 0.9 years
タイプ internet

技術仕様

分類 Payload
質量 575.00 kg
乾燥質量 530.00 kg
総質量 575.00 kg
長さ 0.30 m
直径 4.10 m
スパン 29.00 m
形状 Box + pan
製造者 SPXS
バスタイプ Starlink V2MO
フェーズステータス In Orbit
所有者/国 SPXS/US

Most Searched